Regional Weather Roundup
Issued by NWS Cleveland, OH

Home | Current Version | Previous Version | Graphics & Text | Print | Product List | Glossary On
Versions: 1 2 3 4 5 6 7 8 9 10 11 12 13 14 15 16 17 18 19 20 21 22 23 24 25 26 27 28 29 30 31 32 33 34 35 36 37 38 39 40 41 42 43 44 45 46 47 48 49 50
723
ASUS41 KCLE 221700
RWRCLE
OHIO REGIONAL WEATHER ROUNDUP
NATIONAL WEATHER SERVICE WILMINGTON, OH
100 PM EDT MON MAY 22 2017

NOTE: "FAIR" INDICATES FEW OR NO CLOUDS BELOW 12,000 FEET WITH NO
SIGNIFICANT WEATHER AND/OR OBSTRUCTIONS TO VISIBILITY.

OHZ001>008-015>018-024>027-034-035-043-044-221800-
   NORTHWEST OHIO

CITY           SKY/WX    TMP DP  RH WIND       PRES   REMARKS
DEFIANCE       FAIR      63  43  48 W9        30.05F
FINDLAY        FAIR      63  43  48 W10G22    30.05F
TOLEDO EXPRESS FAIR      65  43  44 SW20G25   30.03F
TOLEDO EXEC    FAIR      65  45  48 W14       30.04F
LIMA           FAIR      62  47  57 W10G20    30.07F
$$

OHZ009>014-019>023-028>033-038-089-221800-
   NORTHEAST OHIO

CITY           SKY/WX    TMP DP  RH WIND       PRES   REMARKS
CLE-HOPKINS    PTSUNNY   63  45  51 SW16G22   30.07F
CLE-LAKEFRONT  FAIR      60  47  61 W14       30.04F
CUY CO. ARPT   NOT AVBL
LORAIN-ELYRIA  FAIR      59  42  53 W13       30.06F
ASHTABULA      PTSUNNY   58  44  60 W16G23    30.05F
AKRON-CANTON   PTSUNNY   59  42  53 W13G22    30.07F
WOOSTER        NOT AVBL
MANSFIELD      FAIR      60  45  57 SW16G22   30.08F
YOUNGSTOWN     PTSUNNY   61  45  55 W10G20    30.04F
$$

OHZ042-051>053-060>062-070>072-077>081-221800-
  SOUTHWEST OHIO

CITY           SKY/WX    TMP DP  RH WIND       PRES   REMARKS
CINC-COVINGTON PTSUNNY   63  42  46 NW7       30.13F
CINC-LUNKEN    FAIR      66  45  46 NW8       30.13F
HAMILTON       FAIR      64  44  48 CALM      30.13F
DAYTON         NOT AVBL
WRIGHT-PAT AFB FAIR      62  41  46 W6        30.11F
DAYTON GENERAL FAIR      61  42  49 NW6       30.12F
WILMINGTON     FAIR      62  45  53 W10       30.12F
$$

OHZ036-037-039>041-045>050-054>059-063>069-073>076-082>088-221800-
  CENTRAL AND SOUTHEAST OHIO

CITY           SKY/WX    TMP DP  RH WIND       PRES   REMARKS
COLUMBUS       CLOUDY    62  45  53 W12G21    30.11S
OSU AIRPORT    FAIR      62  47  57 W10G21    30.11S
BOLTON FIELD   NOT AVBL
RICKENBACK AFB NOT AVBL
NEWARK         FAIR      63  44  50 W12       30.09F
MARION         FAIR      61  43  51 W12       30.09F
LANCASTER      FAIR      64  47  53 W8        30.11F
ZANESVILLE     FAIR      63  45  51 W9        30.09F
NEW PHILLY     FAIR      61  45  55 W14G22    30.09S
$$




USA.gov is the U.S. government's official web portal to all federal, state and local government web resources and services.